Total_Precipitation_Accumulation
0.02 0.05 0.23 0.30 0.29 0.29 0.31 0.30 0.28 0.27 0.30 0.33 0.35 0.35 0.33 0.32 0.31 0.31 0.31 0.32 0.32 0.35 0.42 0.48 0.51 0.50 0.45 0.42 0.43 0.40 0.38 0.36 0.31 0.25 0.26 0.28 0.27 0.23 0.20 0.19 0.17 0.26 0.33
0.02 0.06 0.19 0.24 0.26 0.30 0.32 0.29 0.26 0.24 0.27 0.30 0.31 0.33 0.32 0.31 0.30 0.31 0.32 0.32 0.33 0.36 0.41 0.45 0.47 0.45 0.41 0.41 0.46 0.43 0.37 0.28 0.23 0.19 0.17 0.17 0.23 0.26 0.25 0.24 0.23 0.31 0.31
0.02 0.05 0.14 0.22 0.25 0.32 0.33 0.29 0.25 0.24 0.24 0.28 0.31 0.34 0.33 0.32 0.31 0.30 0.31 0.34 0.39 0.44 0.46 0.47 0.44 0.41 0.40 0.43 0.41 0.41 0.38 0.27 0.17 0.15 0.13 0.18 0.26 0.31 0.32 0.27 0.25 0.29 0.29
0.01 0.03 0.09 0.20 0.24 0.31 0.34 0.32 0.29 0.27 0.27 0.28 0.30 0.32 0.35 0.36 0.34 0.32 0.32 0.38 0.44 0.51 0.56 0.52 0.45 0.45 0.47 0.46 0.37 0.35 0.37 0.31 0.19 0.12 0.08 0.17 0.35 0.45 0.38 0.33 0.28 0.27 0.30
0.01 0.03 0.09 0.20 0.25 0.31 0.35 0.38 0.38 0.36 0.34 0.33 0.32 0.31 0.33 0.34 0.35 0.33 0.35 0.40 0.45 0.48 0.51 0.52 0.48 0.48 0.46 0.42 0.34 0.31 0.42 0.42 0.26 0.09 0.08 0.11 0.28 0.59 0.41 0.37 0.33 0.29 0.28
0.01 0.03 0.10 0.21 0.29 0.33 0.37 0.43 0.44 0.44 0.44 0.43 0.41 0.39 0.39 0.38 0.37 0.34 0.36 0.37 0.36 0.39 0.43 0.45 0.46 0.47 0.46 0.43 0.35 0.36 0.48 0.54 0.27 0.11 0.12 0.14 0.27 0.55 0.45 0.40 0.36 0.32 0.30
0.02 0.04 0.11 0.23 0.33 0.36 0.38 0.43 0.45 0.48 0.52 0.53 0.54 0.53 0.50 0.47 0.44 0.42 0.41 0.37 0.32 0.32 0.37 0.40 0.42 0.44 0.47 0.45 0.41 0.48 0.57 0.55 0.28 0.26 0.17 0.16 0.30 0.51 0.53 0.47 0.41 0.36 0.33
0.03 0.06 0.14 0.29 0.37 0.39 0.40 0.45 0.48 0.51 0.56 0.58 0.59 0.60 0.56 0.52 0.50 0.52 0.51 0.45 0.37 0.31 0.31 0.32 0.35 0.40 0.41 0.40 0.42 0.54 0.57 0.38 0.17 0.12 0.11 0.14 0.29 0.53 0.74 0.66 0.51 0.43 0.38
0.06 0.09 0.17 0.30 0.40 0.44 0.46 0.48 0.50 0.54 0.58 0.60 0.62 0.64 0.61 0.53 0.53 0.54 0.54 0.48 0.42 0.38 0.34 0.30 0.29 0.31 0.32 0.34 0.39 0.41 0.35 0.25 0.13 0.17 0.14 0.19 0.31 0.62 0.91 0.85 0.66 0.50 0.43
0.10 0.14 0.20 0.31 0.40 0.45 0.49 0.53 0.52 0.54 0.57 0.59 0.62 0.64 0.60 0.54 0.52 0.51 0.48 0.44 0.42 0.43 0.40 0.33 0.30 0.29 0.26 0.24 0.26 0.27 0.22 0.18 0.11 0.16 0.21 0.23 0.26 0.59 0.95 0.94 0.80 0.64 0.54
0.17 0.21 0.25 0.34 0.43 0.48 0.50 0.53 0.56 0.57 0.58 0.58 0.60 0.59 0.60 0.56 0.52 0.50 0.46 0.42 0.41 0.41 0.38 0.35 0.31 0.29 0.25 0.20 0.18 0.18 0.15 0.09 0.12 0.19 0.22 0.20 0.27 0.59 0.95 1.00 0.90 0.77 0.69
0.21 0.25 0.30 0.37 0.44 0.52 0.53 0.57 0.60 0.56 0.54 0.53 0.49 0.50 0.53 0.53 0.51 0.46 0.45 0.45 0.45 0.44 0.40 0.39 0.36 0.30 0.26 0.20 0.21 0.21 0.12 0.09 0.13 0.14 0.14 0.15 0.30 0.61 0.92 1.03 1.00 0.90 0.85
0.21 0.26 0.32 0.40 0.49 0.54 0.55 0.56 0.58 0.54 0.52 0.52 0.50 0.53 0.57 0.59 0.56 0.54 0.51 0.48 0.48 0.47 0.50 0.51 0.50 0.40 0.37 0.35 0.34 0.28 0.19 0.16 0.13 0.12 0.11 0.13 0.23 0.46 0.77 0.98 1.07 1.06 1.05
0.26 0.29 0.33 0.43 0.54 0.57 0.57 0.58 0.56 0.51 0.48 0.48 0.48 0.53 0.60 0.61 0.57 0.53 0.52 0.48 0.47 0.47 0.48 0.51 0.53 0.47 0.43 0.37 0.37 0.34 0.31 0.25 0.18 0.15 0.12 0.13 0.15 0.24 0.43 0.68 0.92 1.08 1.15
0.25 0.30 0.35 0.41 0.52 0.59 0.63 0.64 0.60 0.53 0.47 0.44 0.44 0.45 0.47 0.51 0.52 0.48 0.43 0.39 0.39 0.40 0.41 0.41 0.41 0.43 0.43 0.40 0.36 0.34 0.34 0.31 0.25 0.20 0.17 0.16 0.13 0.16 0.25 0.40 0.63 0.94 1.15
0.24 0.29 0.36 0.42 0.50 0.61 0.63 0.67 0.65 0.61 0.54 0.49 0.46 0.42 0.42 0.43 0.44 0.43 0.39 0.33 0.30 0.29 0.29 0.29 0.27 0.27 0.29 0.33 0.32 0.30 0.28 0.28 0.29 0.29 0.26 0.25 0.18 0.16 0.20 0.31 0.46 0.69 1.00
0.24 0.32 0.37 0.45 0.52 0.61 0.65 0.69 0.71 0.71 0.68 0.61 0.52 0.47 0.42 0.42 0.44 0.44 0.42 0.37 0.31 0.29 0.29 0.28 0.24 0.22 0.23 0.24 0.26 0.26 0.24 0.24 0.27 0.31 0.32 0.31 0.27 0.22 0.21 0.27 0.38 0.53 0.78
0.27 0.33 0.40 0.45 0.55 0.61 0.69 0.74 0.74 0.77 0.74 0.69 0.62 0.57 0.49 0.45 0.44 0.47 0.46 0.42 0.39 0.38 0.36 0.34 0.30 0.27 0.25 0.24 0.26 0.29 0.28 0.26 0.26 0.31 0.35 0.32 0.32 0.28 0.24 0.24 0.33 0.47 0.65
0.29 0.35 0.42 0.45 0.52 0.61 0.71 0.82 0.85 0.84 0.81 0.75 0.69 0.65 0.60 0.54 0.47 0.46 0.48 0.47 0.45 0.46 0.44 0.41 0.37 0.34 0.32 0.31 0.32 0.33 0.33 0.31 0.28 0.30 0.34 0.38 0.38 0.34 0.34 0.27 0.28 0.38 0.54
0.30 0.37 0.44 0.48 0.55 0.66 0.80 0.87 0.97 0.94 0.86 0.80 0.77 0.73 0.70 0.65 0.58 0.51 0.48 0.49 0.51 0.51 0.50 0.45 0.43 0.43 0.40 0.37 0.36 0.35 0.36 0.38 0.37 0.34 0.38 0.48 0.47 0.40 0.39 0.38 0.34 0.29 0.34
0.32 0.40 0.46 0.50 0.59 0.71 0.81 0.87 0.86 0.92 0.88 0.79 0.73 0.76 0.77 0.74 0.68 0.63 0.56 0.51 0.54 0.55 0.52 0.48 0.44 0.44 0.42 0.40 0.42 0.40 0.38 0.37 0.34 0.32 0.36 0.47 0.58 0.60 0.55 0.54 0.53 0.45 0.35
0.31 0.39 0.47 0.49 0.54 0.61 0.63 0.71 0.78 0.79 0.81 0.81 0.75 0.73 0.79 0.79 0.73 0.69 0.65 0.57 0.51 0.51 0.51 0.49 0.45 0.43 0.40 0.35 0.39 0.44 0.39 0.36 0.35 0.29 0.25 0.33 0.42 0.50 0.53 0.55 0.60 0.62 0.53
0.30 0.37 0.43 0.50 0.50 0.57 0.63 0.75 0.84 0.90 0.91 0.89 0.84 0.78 0.77 0.78 0.76 0.69 0.65 0.62 0.57 0.51 0.48 0.48 0.46 0.44 0.43 0.38 0.35 0.50 0.55 0.40 0.28 0.20 0.19 0.23 0.25 0.29 0.33 0.39 0.47 0.51 0.58
0.27 0.36 0.43 0.51 0.58 0.58 0.66 0.76 0.76 0.77 0.78 0.72 0.72 0.73 0.77 0.79 0.78 0.74 0.68 0.65 0.62 0.58 0.52 0.47 0.46 0.44 0.46 0.46 0.40 0.38 0.43 0.43 0.46 0.30 0.15 0.14 0.14 0.15 0.16 0.20 0.28 0.34 0.42
0.28 0.37 0.44 0.50 0.61 0.63 0.64 0.71 0.71 0.67 0.66 0.68 0.73 0.78 0.79 0.81 0.83 0.77 0.73 0.70 0.64 0.58 0.54 0.52 0.48 0.48 0.49 0.48 0.46 0.42 0.39 0.35 0.37 0.47 0.30 0.17 0.16 0.15 0.14 0.14 0.15 0.19 0.27
0.29 0.37 0.42 0.50 0.59 0.67 0.68 0.72 0.72 0.68 0.67 0.72 0.77 0.84 0.86 0.87 0.90 0.86 0.75 0.74 0.69 0.58 0.53 0.55 0.54 0.51 0.50 0.49 0.46 0.45 0.49 0.51 0.42 0.46 0.42 0.24 0.20 0.19 0.17 0.15 0.14 0.14 0.19